Regional Weather Roundup
Issued by NWS Green Bay, WI

Home | Current Version | Previous Version | Graphics & Text | Print | Product List | Glossary Off
Versions: 1 2 3 4 5 6 7 8 9 10 11 12 13 14 15 16 17 18 19 20 21 22 23 24 25 26 27 28 29 30 31 32 33 34 35 36 37 38 39 40 41 42 43 44 45 46 47 48 49 50

000
ASUS43 KGRB 240200
RWRGRB

NORTH-CENTRAL AND NORTHEAST WISCONSIN REGIONAL WEATHER ROUNDUP
NATIONAL WEATHER SERVICE GREEN BAY WI
900 PM CDT SUN APR 23 2017

WIZ005-009-010>012-018-019-240300-
NORTH CENTRAL WISCONSIN

CITY           SKY/WX    TMP DP  RH WIND       PRES   REMARKS
IRONWOOD       PTCLDY    35  28  75 E8        30.11R
MANITOWISH WTR CLOUDY    35  29  78 NE9       30.07R
ARBOR VITAE    NOT AVBL
EAGLE RIVER    NOT AVBL
LAND O LAKES   CLOUDY    35  26  70 NE5       30.11R
RHINELANDER    CLOUDY    41  32  70 E14G21    30.06R
PHILLIPS       PTCLDY    41  35  78 NE10      30.03R
ANTIGO         NOT AVBL
TOMAHAWK       NOT AVBL
MERRILL        PTCLDY    48  38  70 SE9       30.04R
$$

WIZ013-073-240300-
NORTHEAST WISCONSIN

CITY           SKY/WX    TMP DP  RH WIND       PRES   REMARKS
IRON MOUNTAIN  PTCLDY    35  20  54 E8        30.13R
MARINETTE      MOCLDY    38  27  64 E12       30.15R
$$

WIZ017-030-035>037-045-240300-
CENTRAL WISCONSIN

CITY           SKY/WX    TMP DP  RH WIND       PRES   REMARKS
MEDFORD        NOT AVBL
WAUSAU         PTCLDY    46  37  71 E14       30.03R
MOSINEE        PTCLDY    46  37  71 SE13G18   30.04R
MARSHFIELD     CLOUDY    50  41  71 E13       30.00R
WISC RAPIDS    CLOUDY    50  42  74 SE12G20   30.03R
STEVENS POINT  NOT AVBL
WAUPACA        CLOUDY    46  38  72 E10       30.08R
SHAWANO        CLOUDY    42  31  66 E12       30.11S
CLINTONVILLE   CLOUDY    41  32  70 E10G18    30.09S
WAUTOMA        CLOUDY    46  39  76 E12G18    30.06R
$$

WIZ038-039-048-051-240300-
FOX VALLEY

CITY           SKY/WX    TMP DP  RH WIND       PRES   REMARKS
NWS GREEN BAY  PTCLDY    41  33  73 E12       30.11S
APPLETON       PTCLDY    43  30  61 E10       30.07R
OSHKOSH        CLOUDY    42  34  73 E10       30.08R
FOND DU LAC    PTCLDY    41  32  70 E8        30.08R
$$

WIZ022-050-052-240300-
EAST CENTRAL WISCONSIN

CITY           SKY/WX    TMP DP  RH WIND       PRES   REMARKS
EPHRAIM        NOT AVBL
WASHINGTON ISL FAIR      37  26  65 NE8       30.15S
STURGEON BAY   PTCLDY    38  27  64 NE8       30.14R
MANITOWOC      NOT AVBL
SHEBOYGAN      PTCLDY    38  31  76 NE15      30.10R
$$

LMZ563-521-522-541>543-240300-
LAKESHORE

STATION/POSITION TIME  TEMP    WIND        PRES    VSBY  WAVE
                       AIR SEA DIR/SP/G                  HT/PER
                 (UTC) (F)     (DEG/KT/KT) (MB)    (MI)  (FT/S)
SHEBOYGAN LKSHOR 0100   38      20/ 18/ 21 1019.3F
KEWAUNEE LKSHORE 0130   39      40/ 13/ 20 1019.4S
NORTHPORT PIER   0140   38      30/  8/ 10 1021.0R
N MID LAKE BUOY  0050   37 37   50/ 10/ 12 1022.0F         1/ 3
CHAMBERS ISLAND  0130   38      30/ 13/ 15 1020.3R
MENOMINEE LKSHOR 0130   39      40/ 16/ 19 1019.9R
$$



USA.gov is the U.S. government's official web portal to all federal, state and local government web resources and services.